TimeCST,TemperatureF,Dew PointF,Humidity,Sea Level PressureIn,VisibilityMPH,Wind Direction,Wind SpeedMPH,Gust SpeedMPH,PrecipitationIn,Events,Conditions,WindDirDegrees,DateUTC
12:52 AM,60.1,55.0,83,29.53,10.0,SSW,16.1,23.0,N/A,,Overcast,210,2013-11-17 06:52:00
1:52 AM,60.1,55.0,83,29.52,10.0,SW,18.4,-,N/A,,Overcast,220,2013-11-17 07:52:00
2:52 AM,60.1,55.0,83,29.52,10.0,SSW,13.8,-,N/A,,Overcast,210,2013-11-17 08:52:00
3:52 AM,57.9,55.0,90,29.49,10.0,SSW,6.9,-,N/A,,Mostly Cloudy,200,2013-11-17 09:52:00
4:52 AM,57.0,54.0,89,29.47,8.0,South,6.9,-,N/A,,Scattered Clouds,180,2013-11-17 10:52:00
5:37 AM,57.9,54.0,87,29.47,9.0,South,10.4,-,N/A,,Mostly Cloudy,170,2013-11-17 11:37:00
5:52 AM,57.0,54.0,89,29.46,9.0,South,11.5,-,N/A,,Overcast,170,2013-11-17 11:52:00
6:11 AM,57.9,55.0,90,29.44,7.0,SSE,9.2,-,0.00,Rain,Light Rain,150,2013-11-17 12:11:00
6:52 AM,54.0,52.0,93,29.41,6.0,ESE,8.1,-,0.01,,Overcast,120,2013-11-17 12:52:00
7:24 AM,53.1,52.0,96,29.38,2.0,SE,9.2,-,0.00,Rain,Light Rain,140,2013-11-17 13:24:00
7:41 AM,54.0,53.1,97,29.37,1.0,SSE,9.2,-,0.00,Rain,Light Rain,150,2013-11-17 13:41:00
7:52 AM,54.0,53.1,97,29.36,1.0,SE,11.5,-,0.00,Rain,Light Rain,140,2013-11-17 13:52:00
8:13 AM,57.9,57.0,97,29.35,1.5,South,11.5,-,0.01,Rain,Light Rain,170,2013-11-17 14:13:00
8:29 AM,57.9,57.0,97,29.33,4.0,South,13.8,-,0.02,,Overcast,170,2013-11-17 14:29:00
8:50 AM,60.8,57.2,88,29.32,4.0,South,15.0,20.7,0.02,,Overcast,180,2013-11-17 14:50:00
8:52 AM,60.1,59.0,96,29.32,4.0,South,12.7,-,0.02,,Overcast,180,2013-11-17 14:52:00
9:04 AM,61.0,59.0,93,29.31,4.0,South,12.7,-,N/A,,Overcast,170,2013-11-17 15:04:00
9:43 AM,64.0,61.0,90,29.29,10.0,South,16.1,27.6,N/A,,Mostly Cloudy,180,2013-11-17 15:43:00
9:52 AM,64.9,61.0,87,29.28,10.0,South,21.9,32.2,N/A,,Overcast,180,2013-11-17 15:52:00
10:37 AM,64.0,61.0,90,29.26,1.2,SSW,13.8,21.9,0.05,Rain-Thunderstorm,Light Thunderstorms and Rain,200,2013-11-17 16:37:00
10:44 AM,62.1,60.1,93,29.25,0.5,WSW,16.1,24.2,0.29,Fog-Rain-Thunderstorm,Heavy Thunderstorms and Rain,240,2013-11-17 16:44:00
10:52 AM,61.0,59.0,93,29.24,0.8,SW,17.3,27.6,0.75,Rain-Thunderstorm,Light Thunderstorms and Rain,230,2013-11-17 16:52:00
10:57 AM,62.1,57.0,84,29.23,2.5,WSW,17.3,27.6,0.00,Rain,Light Rain,240,2013-11-17 16:57:00
11:04 AM,62.1,55.9,80,29.23,10.0,SW,16.1,26.5,0.00,Rain,Light Rain,220,2013-11-17 17:04:00
11:16 AM,61.0,57.0,87,29.22,3.0,SW,9.2,-,0.02,Rain-Thunderstorm,Light Thunderstorms and Rain,220,2013-11-17 17:16:00
11:45 AM,63.0,57.9,84,29.17,10.0,SSW,11.5,-,0.04,,Overcast,210,2013-11-17 17:45:00
11:52 AM,63.0,57.9,84,29.17,10.0,SW,12.7,26.5,0.04,,Overcast,230,2013-11-17 17:52:00
12:10 PM,63.0,57.9,84,29.15,9.0,WNW,8.1,-,0.00,Rain-Thunderstorm,Light Thunderstorms and Rain,290,2013-11-17 18:10:00
12:18 PM,61.0,55.9,83,29.15,1.5,NNW,17.3,23.0,0.00,Rain-Thunderstorm,Heavy Thunderstorms and Rain,330,2013-11-17 18:18:00
12:21 PM,59.0,55.0,87,29.17,0.8,NW,13.8,23.0,0.04,Rain-Thunderstorm,Thunderstorms and Rain,320,2013-11-17 18:21:00
12:52 PM,57.0,55.0,93,29.19,0.5,Variable,6.9,-,0.63,Fog-Rain-Thunderstorm,Heavy Thunderstorms and Rain,0,2013-11-17 18:52:00
1:05 PM,57.0,54.0,89,29.13,1.8,Variable,6.9,-,0.21,Rain-Thunderstorm,Thunderstorms and Rain,0,2013-11-17 19:05:00
1:09 PM,57.0,53.1,87,29.13,3.0,WSW,8.1,-,0.23,Rain-Thunderstorm,Thunderstorms and Rain,240,2013-11-17 19:09:00
1:18 PM,57.0,53.1,87,29.14,6.0,SSW,9.2,-,0.24,Rain,Light Rain,210,2013-11-17 19:18:00
1:35 PM,55.9,53.1,90,29.18,1.8,WSW,12.7,-,0.28,Rain,Light Rain,240,2013-11-17 19:35:00
1:39 PM,55.9,53.1,90,29.20,0.8,WSW,16.1,21.9,0.34,Rain,Heavy Rain,240,2013-11-17 19:39:00
1:52 PM,57.0,55.0,93,29.17,1.0,WSW,9.2,19.6,0.43,Rain,Rain,240,2013-11-17 19:52:00
1:55 PM,57.0,55.0,93,29.17,3.0,WSW,10.4,-,0.01,Rain,Rain,250,2013-11-17 19:55:00
2:26 PM,55.9,51.1,84,29.18,1.8,WSW,19.6,41.4,0.07,Rain,Rain,240,2013-11-17 20:26:00
2:31 PM,55.0,50.0,83,29.10,2.5,NNW,15.0,28.8,0.09,Rain,Rain,340,2013-11-17 20:31:00
2:38 PM,55.0,51.1,86,29.05,7.0,Variable,4.6,21.9,0.09,Rain,Light Rain,0,2013-11-17 20:38:00
2:52 PM,55.9,51.1,84,29.09,10.0,SSW,6.9,-,0.09,,Scattered Clouds,200,2013-11-17 20:52:00
3:50 PM,55.4,51.8,88,29.14,3.0,WSW,16.1,21.9,0.00,Rain,Light Rain,240,2013-11-17 21:50:00
3:52 PM,55.0,51.1,86,29.15,2.0,WSW,18.4,-,0.00,Rain,Light Rain,240,2013-11-17 21:52:00
3:59 PM,54.0,51.1,90,29.15,1.5,NW,16.1,29.9,0.00,Rain,Light Rain,310,2013-11-17 21:59:00
4:03 PM,54.0,50.0,86,29.16,3.0,NW,25.3,41.4,0.00,Rain,Light Rain,310,2013-11-17 22:03:00
4:12 PM,50.0,44.1,80,29.19,7.0,NW,29.9,46.0,0.00,Rain,Light Rain,310,2013-11-17 22:12:00
4:25 PM,48.9,44.1,83,29.23,8.0,WNW,25.3,44.9,0.00,Rain,Light Rain,300,2013-11-17 22:25:00
4:52 PM,46.9,42.1,83,29.29,5.0,WNW,24.2,42.6,0.01,Rain,Light Rain,290,2013-11-17 22:52:00
5:21 PM,46.0,39.9,79,29.33,6.0,West,25.3,41.4,0.07,Rain,Light Rain,280,2013-11-17 23:21:00
5:52 PM,45.0,39.9,82,29.37,8.0,West,26.5,39.1,0.10,Rain,Light Rain,280,2013-11-17 23:52:00
6:30 PM,46.0,39.9,79,29.39,9.0,West,23.0,39.1,0.03,Rain,Light Rain,270,2013-11-18 00:30:00
6:52 PM,46.0,41.0,83,29.42,10.0,West,24.2,38.0,0.03,Rain,Light Rain,280,2013-11-18 00:52:00
7:52 PM,46.0,37.9,73,29.47,10.0,West,24.2,35.7,0.00,,Overcast,280,2013-11-18 01:52:00
8:24 PM,46.0,37.0,71,29.49,10.0,West,19.6,40.3,N/A,,Overcast,270,2013-11-18 02:24:00
8:34 PM,46.0,37.0,71,29.50,10.0,West,23.0,35.7,N/A,,Overcast,270,2013-11-18 02:34:00
8:52 PM,46.0,36.0,68,29.53,10.0,West,25.3,36.8,N/A,,Mostly Cloudy,270,2013-11-18 02:52:00
9:52 PM,45.0,35.1,68,29.57,10.0,West,26.5,39.1,N/A,,Mostly Cloudy,280,2013-11-18 03:52:00
10:52 PM,44.1,34.0,68,29.62,10.0,West,20.7,29.9,N/A,,Mostly Cloudy,260,2013-11-18 04:52:00
11:52 PM,42.1,33.1,70,29.63,10.0,West,18.4,28.8,N/A,,Partly Cloudy,270,2013-11-18 05:52:00